{"data":{"norad_id":52356,"intl_designator":"2022-045AB","name":"STARLINK-3801","alt_names":[],"object_type":"PAYLOAD","status":"ACTIVE","operator":null,"country":"US","launch_date":"2022-04-29","launch_site_code":"AFETR","launch_vehicle":null,"mission":null,"orbit_class":"UNKNOWN","rcs_meters":null,"size_class":null,"mass_kg":null,"dimensions":null,"purposes":["comms"],"wikipedia_slug":null,"has_3d_model":false,"image_url":null,"decayed_at":null,"tle_current":{"epoch":"2026-09-19T22:06:53.747424Z","epoch_age_seconds":109668,"freshness":"FRESH","line1":"1 52356U 22045AB  26262.92145541  .00030658  00000+0  90793-3 0  9995","line2":"2 52356  53.1596  32.1134 0002669 133.2598 226.8627 15.34636655245312","mean_motion":15.34636655,"eccentricity":0.0002669,"inclination_deg":53.1596,"raan_deg":32.1134,"arg_perigee_deg":133.2598,"mean_anomaly_deg":226.8627,"bstar":0.00090793,"rev_number":24531,"period_min":93.833285899195,"perigee_km":460.17430951682,"apogee_km":463.8255746165,"semimajor_km":6840.1369420667,"source":"CELESTRAK","updated_at":"2026-09-20T09:00:40.025640Z"}}}